SWA2718 KMCO-KTYS

Flight info

Callsign SWA2718
Flight time 1h 20m
Altitude 38000
Route JEEMY4 PAINN SHRKS Q77 WIGVO ODF HIGGI
Aircraft B737/M-SDE2E3FGHIRWXY/LB1

Departure

Time 2026-04-26 17:06
Airport Orlando International Airport (KMCO)

Arrival

Time 2026-04-26 18:26
Airport McGhee Tyson Airport (KTYS)
Time Latitude Longitude Altitude Speed Heading
2026-04-26 16:44 28.43473 -81.30023 94 ft 0 kts 269°
2026-04-26 16:57 28.43473 -81.29975 94 ft 4 kts 269°
2026-04-26 16:58 28.43474 -81.29944 94 ft 4 kts 269°
2026-04-26 16:58 28.43474 -81.29924 94 ft 3 kts 269°
2026-04-26 16:58 28.43474 -81.29921 94 ft 0 kts 269°
2026-04-26 17:02 28.43481 -81.29934 112 ft 4 kts 313°
2026-04-26 17:03 28.43514 -81.29927 96 ft 7 kts 38°
2026-04-26 17:03 28.43544 -81.29874 94 ft 9 kts 66°
2026-04-26 17:03 28.43549 -81.29807 94 ft 8 kts 89°
2026-04-26 17:03 28.43549 -81.29741 96 ft 8 kts 89°
2026-04-26 17:04 28.43550 -81.29709 97 ft 2 kts 89°
2026-04-26 17:04 28.43550 -81.29693 96 ft 2 kts 89°
2026-04-26 17:04 28.43550 -81.29655 95 ft 7 kts 89°
2026-04-26 17:04 28.43543 -81.29603 97 ft 7 kts 132°
2026-04-26 17:05 28.43492 -81.29587 98 ft 11 kts 178°
2026-04-26 17:05 28.43219 -81.29585 98 ft 73 kts 180°
2026-04-26 17:05 28.42494 -81.29576 96 ft 132 kts 179°
2026-04-26 17:05 28.41448 -81.29574 214 ft 158 kts 186°
2026-04-26 17:06 28.40337 -81.29640 418 ft 167 kts 184°
2026-04-26 17:06 28.39129 -81.29603 793 ft 187 kts 175°
2026-04-26 17:06 28.37933 -81.29067 1401 ft 187 kts 148°
2026-04-26 17:06 28.36923 -81.28084 1940 ft 208 kts 123°
2026-04-26 17:07 28.36622 -81.26393 2278 ft 237 kts 80°
2026-04-26 17:07 28.37415 -81.24699 2614 ft 256 kts 42°
2026-04-26 17:07 28.39042 -81.23745 2999 ft 271 kts
2026-04-26 17:07 28.40892 -81.23838 3877 ft 266 kts 343°
2026-04-26 17:08 28.42678 -81.24408 4766 ft 265 kts 340°
2026-04-26 17:08 28.44450 -81.25049 5586 ft 269 kts 339°
2026-04-26 17:08 28.46251 -81.25699 6415 ft 272 kts 340°
2026-04-26 17:08 28.48064 -81.26332 7265 ft 275 kts 340°
2026-04-26 17:09 28.49906 -81.26957 8184 ft 277 kts 340°
2026-04-26 17:09 28.50507 -81.27157 8493 ft 278 kts 341°
2026-04-26 17:09 28.53666 -81.28188 9955 ft 285 kts 342°
2026-04-26 17:09 28.55605 -81.28811 10564 ft 299 kts 342°
2026-04-26 17:10 28.57675 -81.29474 10755 ft 326 kts 342°
2026-04-26 17:10 28.59945 -81.30195 11050 ft 348 kts 342°
2026-04-26 17:10 28.62310 -81.30939 11696 ft 355 kts 342°
2026-04-26 17:10 28.64699 -81.31686 12563 ft 357 kts 342°
2026-04-26 17:11 28.67096 -81.32436 13408 ft 359 kts 342°
2026-04-26 17:11 28.69529 -81.33198 14104 ft 364 kts 343°
2026-04-26 17:11 28.71995 -81.33971 14746 ft 369 kts 343°
2026-04-26 17:11 28.74480 -81.34751 15500 ft 372 kts 342°
2026-04-26 17:12 28.79505 -81.36330 16973 ft 378 kts 342°
2026-04-26 17:12 28.82053 -81.37132 17664 ft 382 kts 342°
2026-04-26 17:13 28.87201 -81.38753 18903 ft 390 kts 342°
2026-04-26 17:13 28.89832 -81.39582 19461 ft 394 kts 342°
2026-04-26 17:13 28.95175 -81.41237 20573 ft 403 kts 345°
2026-04-26 17:14 28.97975 -81.41714 21131 ft 409 kts 352°
2026-04-26 17:14 29.03721 -81.42254 22177 ft 418 kts 353°
2026-04-26 17:14 29.05649 -81.42446 22533 ft 421 kts 352°
2026-04-26 17:15 29.11537 -81.43080 23542 ft 429 kts 353°
2026-04-26 17:15 29.14523 -81.43373 23971 ft 432 kts 353°
2026-04-26 17:15 29.17523 -81.43654 24450 ft 434 kts 353°
2026-04-26 17:16 29.20536 -81.43932 24948 ft 435 kts 353°
2026-04-26 17:16 29.23570 -81.44214 25398 ft 438 kts 353°
2026-04-26 17:16 29.26609 -81.44499 25861 ft 440 kts 352°
2026-04-26 17:16 29.29676 -81.44788 26303 ft 443 kts 352°
2026-04-26 17:17 29.32749 -81.45081 26731 ft 445 kts 352°
2026-04-26 17:17 29.35842 -81.45375 27168 ft 447 kts 352°
2026-04-26 17:17 29.38954 -81.45672 27581 ft 449 kts 352°
2026-04-26 17:17 29.42078 -81.45970 27980 ft 452 kts 352°
2026-04-26 17:18 29.45222 -81.46270 28368 ft 454 kts 352°
2026-04-26 17:18 29.48374 -81.46571 28752 ft 456 kts 352°
2026-04-26 17:18 29.51547 -81.46874 29122 ft 458 kts 352°
2026-04-26 17:18 29.54731 -81.47179 29472 ft 460 kts 351°
2026-04-26 17:19 29.61089 -81.47776 30549 ft 454 kts 351°
2026-04-26 17:19 29.64179 -81.48054 31166 ft 448 kts 351°
2026-04-26 17:19 29.67310 -81.48333 31757 ft 444 kts 351°
2026-04-26 17:20 29.70379 -81.48609 32271 ft 441 kts 350°
2026-04-26 17:20 29.72402 -81.48792 32575 ft 439 kts 350°
2026-04-26 17:20 29.76463 -81.49162 33204 ft 436 kts 350°
2026-04-26 17:20 29.79473 -81.49436 33718 ft 433 kts 349°
2026-04-26 17:21 29.82464 -81.49708 34169 ft 429 kts 349°
2026-04-26 17:21 29.85393 -81.49974 34634 ft 424 kts 349°
2026-04-26 17:21 29.88338 -81.50284 35218 ft 414 kts 346°
2026-04-26 17:21 29.91116 -81.50960 35668 ft 404 kts 338°
2026-04-26 17:22 29.93756 -81.51905 35978 ft 402 kts 338°
2026-04-26 17:22 29.96422 -81.52880 36251 ft 401 kts 338°
2026-04-26 17:22 29.99078 -81.53854 36577 ft 399 kts 338°
2026-04-26 17:22 30.01720 -81.54816 36940 ft 397 kts 338°
2026-04-26 17:23 30.07050 -81.56743 36947 ft 403 kts 338°
2026-04-26 17:23 30.12389 -81.58657 36949 ft 398 kts 338°
2026-04-26 17:24 30.17623 -81.60530 36963 ft 391 kts 338°
2026-04-26 17:24 30.22807 -81.62391 36959 ft 389 kts 338°
2026-04-26 17:25 30.27968 -81.64247 36954 ft 387 kts 338°
2026-04-26 17:25 30.33124 -81.66102 36956 ft 388 kts 338°
2026-04-26 17:26 30.38279 -81.67959 36937 ft 388 kts 338°
2026-04-26 17:26 30.43414 -81.69811 36941 ft 389 kts 338°
2026-04-26 17:27 30.48602 -81.71684 36936 ft 391 kts 338°
2026-04-26 17:27 30.53815 -81.73567 36936 ft 393 kts 338°
2026-04-26 17:28 30.59049 -81.75460 36941 ft 395 kts 338°
2026-04-26 17:28 30.64374 -81.77121 36938 ft 400 kts 344°
2026-04-26 17:29 30.68947 -81.78026 36941 ft 401 kts 345°
2026-04-26 17:29 30.75387 -81.79273 36952 ft 401 kts 344°
2026-04-26 17:30 30.80885 -81.80357 36928 ft 400 kts 344°
2026-04-26 17:30 30.86361 -81.81450 36940 ft 398 kts 344°
2026-04-26 17:31 30.91807 -81.82543 36937 ft 397 kts 344°
2026-04-26 17:31 30.97237 -81.83634 36929 ft 395 kts 344°
2026-04-26 17:32 31.02658 -81.84725 36946 ft 395 kts 344°
2026-04-26 17:32 31.08043 -81.85811 36932 ft 395 kts 344°
2026-04-26 17:33 31.13466 -81.86904 36937 ft 395 kts 344°
2026-04-26 17:34 31.21597 -81.88546 36936 ft 395 kts 344°
2026-04-26 17:34 31.27016 -81.89642 36983 ft 395 kts 343°
2026-04-26 17:35 31.32451 -81.90743 36956 ft 396 kts 343°
2026-04-26 17:35 31.37857 -81.91838 36955 ft 396 kts 343°
2026-04-26 17:36 31.43298 -81.92942 36958 ft 397 kts 343°
2026-04-26 17:36 31.48736 -81.94047 36963 ft 397 kts 343°
2026-04-26 17:37 31.54185 -81.95155 36960 ft 397 kts 343°
2026-04-26 17:37 31.59628 -81.96264 36972 ft 397 kts 343°
2026-04-26 17:38 31.67811 -81.97933 36934 ft 398 kts 343°
2026-04-26 17:38 31.73239 -81.99042 36943 ft 398 kts 343°
2026-04-26 17:39 31.78715 -82.00162 36949 ft 399 kts 343°
2026-04-26 17:39 31.84192 -82.01283 36949 ft 399 kts 343°
2026-04-26 17:40 31.88794 -82.01937 36941 ft 405 kts 351°
2026-04-26 17:40 31.95387 -82.02136 36949 ft 405 kts 351°
2026-04-26 17:41 32.01030 -82.02298 36940 ft 405 kts 351°
2026-04-26 17:41 32.06665 -82.02481 36944 ft 405 kts 351°
2026-04-26 17:42 32.12259 -82.02673 36953 ft 405 kts 351°
2026-04-26 17:42 32.17900 -82.02870 36948 ft 406 kts 351°
2026-04-26 17:43 32.23551 -82.03066 36941 ft 406 kts 351°
2026-04-26 17:43 32.29202 -82.03261 36942 ft 406 kts 351°
2026-04-26 17:44 32.34857 -82.03458 36949 ft 407 kts 351°
2026-04-26 17:44 32.40532 -82.03655 36948 ft 408 kts 351°
2026-04-26 17:45 32.46096 -82.04446 36951 ft 397 kts 339°
2026-04-26 17:45 32.51159 -82.06751 36954 ft 391 kts 330°
2026-04-26 17:46 32.56095 -82.09488 36946 ft 392 kts 330°
2026-04-26 17:46 32.61036 -82.12228 36949 ft 393 kts 330°
2026-04-26 17:47 32.64357 -82.14062 36968 ft 393 kts 330°
2026-04-26 17:47 32.70967 -82.17701 36950 ft 394 kts 330°
2026-04-26 17:48 32.75939 -82.20437 36943 ft 394 kts 330°
2026-04-26 17:48 32.80894 -82.23167 36941 ft 393 kts 330°
2026-04-26 17:49 32.85849 -82.25901 36948 ft 392 kts 330°
2026-04-26 17:49 32.90802 -82.28637 36946 ft 392 kts 330°
2026-04-26 17:50 32.95747 -82.31372 36961 ft 392 kts 330°
2026-04-26 17:50 33.00693 -82.34111 36948 ft 392 kts 330°
2026-04-26 17:51 33.05643 -82.36856 36955 ft 392 kts 330°
2026-04-26 17:51 33.10592 -82.39603 36963 ft 392 kts 330°
2026-04-26 17:52 33.15540 -82.42353 36955 ft 392 kts 329°
2026-04-26 17:52 33.20488 -82.45107 36955 ft 392 kts 329°
2026-04-26 17:53 33.25427 -82.47859 36962 ft 392 kts 329°
2026-04-26 17:54 33.32807 -82.51978 37009 ft 391 kts 329°
2026-04-26 17:54 33.37739 -82.54736 37018 ft 391 kts 329°
2026-04-26 17:55 33.42678 -82.57500 37028 ft 391 kts 329°
2026-04-26 17:55 33.47621 -82.60270 37052 ft 392 kts 330°
2026-04-26 17:56 33.52535 -82.63028 37039 ft 393 kts 330°
2026-04-26 17:57 33.62460 -82.68608 37017 ft 394 kts 330°
2026-04-26 17:57 33.67435 -82.71410 37002 ft 395 kts 330°
2026-04-26 17:58 33.77401 -82.77034 37012 ft 397 kts 330°
2026-04-26 17:59 33.84889 -82.81269 37009 ft 396 kts 330°
2026-04-26 17:59 33.89034 -82.83617 37003 ft 395 kts 330°
2026-04-26 18:00 33.94006 -82.86436 37000 ft 395 kts 330°
2026-04-26 18:00 33.98969 -82.89254 37006 ft 394 kts 330°
2026-04-26 18:01 34.03931 -82.92078 37013 ft 395 kts 330°
2026-04-26 18:01 34.08902 -82.94908 37008 ft 395 kts 330°
2026-04-26 18:02 34.13034 -82.97263 37012 ft 395 kts 330°
2026-04-26 18:02 34.18822 -83.00567 36996 ft 396 kts 330°
2026-04-26 18:03 34.23800 -83.03413 36988 ft 396 kts 330°
2026-04-26 18:03 34.28771 -83.06258 37015 ft 395 kts 330°
2026-04-26 18:04 34.33749 -83.09110 36914 ft 397 kts 330°
2026-04-26 18:04 34.36277 -83.10563 36360 ft 401 kts 330°
2026-04-26 18:05 34.41306 -83.13450 35012 ft 400 kts 330°
2026-04-26 18:05 34.43822 -83.14896 34286 ft 400 kts 329°
2026-04-26 18:05 34.46334 -83.16341 33678 ft 398 kts 329°
2026-04-26 18:05 34.48821 -83.17771 33100 ft 393 kts 329°
2026-04-26 18:06 34.51277 -83.19184 32565 ft 388 kts 329°
2026-04-26 18:06 34.53709 -83.20585 32042 ft 384 kts 329°
2026-04-26 18:06 34.56116 -83.21973 31557 ft 381 kts 330°
2026-04-26 18:06 34.58499 -83.23349 31039 ft 378 kts 330°
2026-04-26 18:07 34.60830 -83.24696 30552 ft 375 kts 330°
2026-04-26 18:07 34.63186 -83.26059 30043 ft 373 kts 330°
2026-04-26 18:07 34.65522 -83.27411 29462 ft 371 kts 330°
2026-04-26 18:07 34.67060 -83.28300 29094 ft 369 kts 330°
2026-04-26 18:08 34.70151 -83.30094 28348 ft 366 kts 329°
2026-04-26 18:08 34.72440 -83.31499 27427 ft 372 kts 329°
2026-04-26 18:08 34.74737 -83.32960 26829 ft 372 kts 328°
2026-04-26 18:08 34.77029 -83.34434 26247 ft 371 kts 329°
2026-04-26 18:09 34.79312 -83.35901 25712 ft 370 kts 329°
2026-04-26 18:09 34.81585 -83.37359 25206 ft 368 kts 329°
2026-04-26 18:09 34.83819 -83.38787 24692 ft 367 kts 329°
2026-04-26 18:09 34.86087 -83.40235 24152 ft 367 kts 329°
2026-04-26 18:10 34.88351 -83.41679 23625 ft 368 kts 330°
2026-04-26 18:10 34.90617 -83.43123 23034 ft 367 kts 330°
2026-04-26 18:10 34.92881 -83.44567 22467 ft 366 kts 330°
2026-04-26 18:10 34.95138 -83.46006 21935 ft 364 kts 330°
2026-04-26 18:11 34.97375 -83.47429 21412 ft 362 kts 330°
2026-04-26 18:11 34.99596 -83.48840 20937 ft 358 kts 330°
2026-04-26 18:11 35.01806 -83.50253 20380 ft 357 kts 330°
2026-04-26 18:11 35.03995 -83.51661 19909 ft 355 kts 330°
2026-04-26 18:12 35.06180 -83.53064 19390 ft 354 kts 330°
2026-04-26 18:12 35.08355 -83.54463 18904 ft 353 kts 332°
2026-04-26 18:12 35.10523 -83.55858 18378 ft 353 kts 331°
2026-04-26 18:12 35.12699 -83.57259 17824 ft 351 kts 332°
2026-04-26 18:13 35.14858 -83.58642 17271 ft 350 kts 332°
2026-04-26 18:13 35.17013 -83.60019 16731 ft 348 kts 333°
2026-04-26 18:13 35.19132 -83.61374 16211 ft 347 kts 333°
2026-04-26 18:13 35.20584 -83.62299 15863 ft 346 kts 333°
2026-04-26 18:14 35.23399 -83.64108 15173 ft 344 kts 334°
2026-04-26 18:14 35.25516 -83.65472 14646 ft 344 kts 334°
2026-04-26 18:14 35.27641 -83.66822 14115 ft 344 kts 335°
2026-04-26 18:14 35.29762 -83.68185 13528 ft 344 kts 334°
2026-04-26 18:15 35.31848 -83.69612 13015 ft 341 kts 334°
2026-04-26 18:15 35.33949 -83.70961 12459 ft 340 kts 336°
2026-04-26 18:15 35.36063 -83.72285 11880 ft 341 kts 334°
2026-04-26 18:15 35.38207 -83.73535 11379 ft 341 kts 335°
2026-04-26 18:16 35.40305 -83.74924 10817 ft 344 kts 333°
2026-04-26 18:16 35.44394 -83.77860 10197 ft 334 kts 322°
2026-04-26 18:16 35.45923 -83.79974 9849 ft 330 kts 306°
2026-04-26 18:17 35.47175 -83.82244 9874 ft 312 kts 305°
2026-04-26 18:17 35.48335 -83.84429 9839 ft 300 kts 304°
2026-04-26 18:17 35.49439 -83.86516 9723 ft 289 kts 304°
2026-04-26 18:17 35.50525 -83.88551 9350 ft 284 kts 304°
2026-04-26 18:18 35.51608 -83.90573 8712 ft 283 kts 304°
2026-04-26 18:18 35.52691 -83.92590 8092 ft 287 kts 306°
2026-04-26 18:18 35.53796 -83.94626 7834 ft 283 kts 306°
2026-04-26 18:18 35.54886 -83.96632 7501 ft 281 kts 306°
2026-04-26 18:19 35.55966 -83.98625 7136 ft 280 kts 306°
2026-04-26 18:19 35.57033 -84.00605 6829 ft 274 kts 305°
2026-04-26 18:19 35.58098 -84.02557 6520 ft 274 kts 305°
2026-04-26 18:19 35.59147 -84.04488 6216 ft 272 kts 305°
2026-04-26 18:20 35.60194 -84.06417 5928 ft 270 kts 304°
2026-04-26 18:20 35.61234 -84.08336 5546 ft 271 kts 306°
2026-04-26 18:20 35.62274 -84.10257 5304 ft 266 kts 306°
2026-04-26 18:20 35.62941 -84.11494 5269 ft 258 kts 305°
2026-04-26 18:21 35.64240 -84.13896 5149 ft 246 kts 307°
2026-04-26 18:21 35.65244 -84.15503 5061 ft 228 kts 324°
2026-04-26 18:21 35.66618 -84.16099 4934 ft 205 kts
2026-04-26 18:21 35.67856 -84.15465 4772 ft 188 kts 39°
2026-04-26 18:22 35.68875 -84.14485 4458 ft 186 kts 38°
2026-04-26 18:22 35.69880 -84.13440 4067 ft 190 kts 43°
2026-04-26 18:22 35.70809 -84.12349 3897 ft 181 kts 45°
2026-04-26 18:22 35.71689 -84.11275 3712 ft 172 kts 45°
2026-04-26 18:23 35.72515 -84.10261 3488 ft 167 kts 45°
2026-04-26 18:23 35.73325 -84.09266 3180 ft 161 kts 45°
2026-04-26 18:23 35.74098 -84.08317 2884 ft 154 kts 45°
2026-04-26 18:23 35.74845 -84.07402 2679 ft 146 kts 45°
2026-04-26 18:24 35.75552 -84.06521 2438 ft 144 kts 47°
2026-04-26 18:24 35.76238 -84.05665 2163 ft 142 kts 45°
2026-04-26 18:24 35.76925 -84.04842 1940 ft 134 kts 44°
2026-04-26 18:24 35.77582 -84.04035 1741 ft 133 kts 45°
2026-04-26 18:25 35.78230 -84.03244 1643 ft 130 kts 43°
2026-04-26 18:25 35.78869 -84.02456 1457 ft 129 kts 44°
2026-04-26 18:25 35.79507 -84.01672 1271 ft 129 kts 43°
2026-04-26 18:25 35.80163 -84.00877 1064 ft 144 kts 43°
2026-04-26 18:26 35.80825 -84.00070 977 ft 122 kts 44°
2026-04-26 18:26 35.81324 -83.99463 974 ft 67 kts 44°
2026-04-26 18:26 35.81538 -83.99179 973 ft 34 kts 55°
2026-04-26 18:26 35.81604 -83.98984 971 ft 18 kts 83°
2026-04-26 18:27 35.81535 -83.98884 979 ft 17 kts 171°
2026-04-26 18:27 35.81418 -83.98874 973 ft 17 kts 175°
2026-04-26 18:27 35.81306 -83.98860 981 ft 16 kts 167°
2026-04-26 18:27 35.81207 -83.98808 974 ft 15 kts 169°
2026-04-26 18:28 35.81125 -83.98872 976 ft 14 kts 225°
2026-04-26 18:28 35.81056 -83.98957 980 ft 14 kts 224°
2026-04-26 18:28 35.80989 -83.99037 974 ft 13 kts 224°
2026-04-26 18:28 35.80926 -83.99115 977 ft 13 kts 225°
2026-04-26 18:29 35.80864 -83.99191 974 ft 12 kts 224°
2026-04-26 18:29 35.80799 -83.99249 975 ft 11 kts 189°
2026-04-26 18:29 35.80757 -83.99196 979 ft 9 kts 92°
2026-04-26 18:29 35.80751 -83.99132 976 ft 6 kts 126°
2026-04-26 18:30 35.80730 -83.99106 977 ft 1 kts 135°
2026-04-26 18:30 35.80728 -83.99104 977 ft 0 kts 135°